星链-31817 (STARLINK-31817 )

导读 | 星芒AI

STARLINK-31817 是 SpaceX Starlink 项目中的一颗低轨通信卫星,属于其第二代卫星群。该卫星于2023年发射,旨在为全球用户提供高速、低延迟的互联网服务。它运行在约550公里高的近地轨道,采用先进通信技术,支持宽带接入。Starlink 卫星群由数千颗卫星组成,致力于改善偏远地区的网络覆盖。STARLINK-31817 在提升全球互联网可达性方面发挥着重要作用。

基本信息
目录编号:
59731
目录名称:
STARLINK-31817
国际标识:
2024-090B
轨道中心:
EARTH
卫星名称:
星链-31817
卫星全名:
星链-31817 (STARLINK-31817 )
卫星状态:
在轨 (已飞行538 天)
发射日期:
2024-05-13 UTC
国别 :
美国 (US)
星等 :
--
轨道信息
数据来源 国际轨道数据
星历时间: 2025-11-01T17:43:05+0800
1天前
查看轨道信息
半长轴: 6861.219km
偏心率: 0.0001093
轨道倾角: 42.999°
近地点辐角 234.585°
升交点赤经 187.726°
平近点角 125.490°
近地点: 482.334km
远地点: 483.834km
周期: 94.267分钟
每日圈数: 15.275691
详细信息
固有亮度:
5
最大亮度:
1.5
卫星平台:
Starlink v2.0 mini
覆盖范围:
全球
运营商:
太空探索技术公司
运营商所在国:
美国
制造商(研发单位):
太空探索技术公司
制造商所在国:
美国
使用方式:
暂无
卫星简介
星链(Starlink)计划是由太空探索技术公司(SpaceX)提出的一个巨型低轨卫星互联网星座项目,计划在2019年至2024年间在太空搭建由约1.2万颗卫星组成的“星链”网络,其中1584颗将部署在地球上空550千米处的近地轨道,并从2020年开始工作。该卫星仍在工作。
2D轨道图
3D轨道图
轨道高度分析图
轨道倾角分析图
轨道综合分析图
查看轨道综合分析图